Location: Libas
(9.8833°N, 125.9833°E)
Time: 20:48:49
(UTC+00:00)

Cosmos 1302 Rocket - Pass Details

Date: 27 October 2020
Orbit: 756 x 777 km, 74.0° (Epoch: 25 November)

Event Time Altitude Azimuth Distance (km) Brightness Sun altitude
Rises 20:23:15 0° 347° (NNW) 3,240 7.0 -15.9°
Reaches altitude 10° 20:25:37 10° 348° (NNW) 2,311 6.3 -15.3°
Maximum altitude 20:30:53 89° 76° (ENE) 773 4.0 -14.0°
Drops below altitude 10° 20:36:07 10° 167° (SSE) 2,300 6.8 -12.8°
Sets 20:38:28 0° 167° (SSE) 3,222 7.6 -12.2°
